Weather History for Auburn, IN

Change the Weather History Date:

Monday, March 11, 2013

  Actual Average (KFWA) Record (KFWA)
Temperature  
Mean Temperature 44 °F 36 °F  
Max Temperature 53 °F 46 °F 75 °F (1990)
Min Temperature 35 °F 27 °F 1 °F (1948)
Degree Days  
Heating Degree Days 21 29  
Month to date heating degree days 336  
Since 1 July heating degree days 4934  
Cooling Degree Days 0 0  
Month to date cooling degree days 0  
Year to date cooling degree days 0  
Moisture  
Dew Point 40 °F    
Average Humidity 81    
Maximum Humidity 94    
Minimum Humidity 51    
Precipitation  
Precipitation 0.47 in 0.08 in 1.20 in (1939)
Month to date precipitation 0.86  
Year to date precipitation 5.16  
Snow  
Snow 0.00 in 0.20 in 8.80 in (2000)
Month to date snowfall 2.0  
Since 1 July snowfall 30.4  
Snow Depth -    
Sea Level Pressure  
Sea Level Pressure 29.66 in    
Wind  
Wind Speed 6 mph (SSW)    
Max Wind Speed 17 mph    
Max Gust Speed 25 mph    
Visibility 7 miles    
Events Rain    
T = Trace of Precipitation, MM = Missing Value Source: NWS Daily Summary

Daily Weather History Graph

Daily Weather History Graph

Search for Another Location

Airport:

Trip Planner

Search our weather history database for the weather conditions in past years. The results will help you decide how hot, cold, wet, or windy it might be!

Date:

Astronomy

Mar. 11, 2013 Rise Set
Actual Time 7:58 AM EDT 7:42 PM EDT
Civil Twilight 7:30 AM EDT 8:10 PM EDT
Nautical Twilight 6:58 AM EDT 8:42 PM EDT
Astronomical Twilight 6:26 AM EDT 9:14 PM EDT
Moon 7:31 AM EDT (3/11) 7:54 PM EDT (3/11)
Length of Visible Light 12h 39m
Length of Day
11h 44m
Waning Crescent, 0% of the Moon is Illuminated
Mar 11
Waning Crescent
Mar 11
New
Mar 19
First Quarter
Mar 27
Full
Apr 3
Last Quarter

Hourly Weather History & Observations

Time (EDT) Temp. Windchill Dew Point Humidity Pressure Visibility Wind Dir Wind Speed Gust Speed Precip Events Conditions
12:15 AM 53.6 °F - 35.6 °F 51% 29.77 in 10.0 mi SSE 4.6 mph - N/A   Overcast
12:35 AM 53.6 °F - 37.4 °F 54% 29.77 in 10.0 mi South 4.6 mph - N/A   Overcast
12:55 AM 53.6 °F - 37.4 °F 54% 29.75 in 10.0 mi SE 3.5 mph - N/A   Overcast
1:15 AM 53.6 °F - 37.4 °F 54% 29.74 in 10.0 mi SSE 3.5 mph - N/A   Overcast
1:35 AM 51.8 °F - 37.4 °F 58% 29.73 in 10.0 mi SSE 3.5 mph - N/A   Overcast
1:55 AM 51.8 °F - 37.4 °F 58% 29.72 in 10.0 mi SSE 3.5 mph - N/A   Overcast
2:15 AM 51.8 °F - 37.4 °F 58% 29.73 in 10.0 mi SSE 3.5 mph - N/A   Overcast
2:35 AM 51.8 °F - 37.4 °F 58% 29.72 in 10.0 mi SE 3.5 mph - N/A   Overcast
3:15 AM 53.6 °F - 39.2 °F 58% 29.70 in 10.0 mi South 11.5 mph 20.7 mph N/A   Overcast
3:35 AM 53.6 °F - 41.0 °F 62% 29.70 in 10.0 mi South 8.1 mph 19.6 mph N/A   Overcast
3:55 AM 53.6 °F - 41.0 °F 62% 29.70 in 10.0 mi South 10.4 mph 19.6 mph N/A   Overcast
4:15 AM 53.6 °F - 41.0 °F 62% 29.69 in 10.0 mi South 12.7 mph 19.6 mph N/A   Overcast
4:35 AM 53.6 °F - 42.8 °F 67% 29.69 in 10.0 mi South 9.2 mph 25.3 mph N/A   Overcast
4:55 AM 51.8 °F - 42.8 °F 71% 29.69 in 10.0 mi South 5.8 mph - N/A   Overcast
5:15 AM 50.0 °F - 44.6 °F 82% 29.69 in 5.0 mi South 5.8 mph - N/A   Heavy Drizzle
5:35 AM 48.2 °F - 44.6 °F 87% 29.68 in 3.0 mi South 4.6 mph - 0.01 in   Heavy Drizzle
5:55 AM 48.2 °F - 46.4 °F 93% 29.68 in 3.0 mi South 5.8 mph - 0.02 in   Drizzle
6:15 AM 48.2 °F - 46.4 °F 93% 29.68 in 3.0 mi Calm Calm - N/A   Drizzle
6:35 AM 48.2 °F - 46.4 °F 93% 29.68 in 7.0 mi Calm Calm - N/A   Light Drizzle
6:55 AM 48.2 °F - 44.6 °F 87% 29.67 in 10.0 mi Calm Calm - N/A   Overcast
7:15 AM 48.2 °F - 46.4 °F 93% 29.68 in 7.0 mi SSE 3.5 mph - N/A Rain Light Rain
7:35 AM 48.2 °F - 46.4 °F 93% 29.68 in 4.0 mi SSE 4.6 mph - N/A   Light Drizzle
7:55 AM 48.2 °F - 46.4 °F 93% 29.68 in 2.5 mi South 3.5 mph - 0.01 in   Heavy Drizzle
8:15 AM 48.2 °F - 46.4 °F 93% 29.68 in 3.0 mi South 4.6 mph - 0.01 in   Drizzle
8:35 AM 48.2 °F - 46.4 °F 93% 29.67 in 3.0 mi South 3.5 mph - 0.01 in   Heavy Drizzle
8:55 AM 48.2 °F - 46.4 °F 93% 29.67 in 2.5 mi South 4.6 mph - 0.01 in   Light Drizzle
9:15 AM 50.0 °F - 46.4 °F 87% 29.68 in 2.5 mi Calm Calm - N/A   Overcast
9:35 AM 50.0 °F - 46.4 °F 87% 29.68 in 3.0 mi South 3.5 mph - N/A   Overcast
9:55 AM 50.0 °F - 46.4 °F 87% 29.67 in 4.0 mi Calm Calm - N/A   Overcast
10:15 AM 50.0 °F - 46.4 °F 87% 29.67 in 4.0 mi Calm Calm - N/A Rain Rain
10:35 AM 50.0 °F - 46.4 °F 87% 29.65 in 2.5 mi Calm Calm - 0.01 in   Drizzle
10:55 AM 50.0 °F - 46.4 °F 87% 29.65 in 2.0 mi South 3.5 mph - 0.02 in   Heavy Drizzle
11:15 AM 50.0 °F - 46.4 °F 87% 29.63 in 2.0 mi Calm Calm - 0.01 in   Heavy Drizzle
11:35 AM 50.0 °F - 46.4 °F 87% 29.61 in 2.0 mi SE 3.5 mph - 0.01 in   Light Drizzle
11:55 AM 50.0 °F - 48.2 °F 94% 29.60 in 1.8 mi Calm Calm - 0.06 in Rain Heavy Rain
12:15 PM 50.0 °F - 48.2 °F 94% 29.59 in 4.0 mi Calm Calm - 0.01 in Rain Rain
12:35 PM 50.0 °F - 48.2 °F 94% 29.58 in 1.5 mi Calm Calm - 0.06 in Rain Heavy Rain
12:55 PM 50.0 °F - 48.2 °F 94% 29.58 in 1.5 mi SSW 5.8 mph - 0.16 in Rain Heavy Rain
1:15 PM 50.0 °F - 48.2 °F 94% 29.55 in 4.0 mi SW 3.5 mph - 0.03 in Rain Rain
1:35 PM 50.0 °F - 46.4 °F 87% 29.56 in 7.0 mi SSW 4.6 mph - 0.04 in Rain Rain
1:55 PM 50.0 °F - 46.4 °F 87% 29.55 in 4.0 mi SSW 3.5 mph - 0.06 in Rain Rain
2:15 PM 50.0 °F - 46.4 °F 87% 29.56 in 4.0 mi SW 8.1 mph - 0.04 in Rain Rain
2:35 PM 48.2 °F - 44.6 °F 87% 29.56 in 4.0 mi West 12.7 mph 18.4 mph 0.09 in Rain Rain
2:55 PM 46.4 °F 41.5 °F 42.8 °F 87% 29.56 in 5.0 mi SW 10.4 mph 19.6 mph 0.11 in Rain Rain
3:15 PM 46.4 °F 41.9 °F 42.8 °F 87% 29.56 in 4.0 mi WSW 9.2 mph - 0.02 in Rain Rain
3:35 PM 44.6 °F 38.1 °F 41.0 °F 87% 29.56 in 5.0 mi WSW 13.8 mph 20.7 mph 0.02 in   Light Drizzle
3:55 PM 44.6 °F 38.4 °F 41.0 °F 87% 29.57 in 10.0 mi WSW 12.7 mph 17.3 mph 0.02 in   Overcast
4:15 PM 42.8 °F 37.5 °F 37.4 °F 81% 29.58 in 10.0 mi SW 9.2 mph - N/A   Overcast
4:35 PM 42.8 °F 36.2 °F 37.4 °F 81% 29.58 in 10.0 mi SW 12.7 mph 19.6 mph N/A   Overcast
4:55 PM 42.8 °F 36.2 °F 37.4 °F 81% 29.59 in 10.0 mi SW 12.7 mph 19.6 mph N/A   Overcast
5:15 PM 42.8 °F 35.8 °F 35.6 °F 76% 29.60 in 10.0 mi WSW 13.8 mph 24.2 mph N/A   Overcast
5:35 PM 42.8 °F 36.6 °F 35.6 °F 76% 29.60 in 10.0 mi WSW 11.5 mph 20.7 mph N/A   Overcast
5:55 PM 41.0 °F 33.9 °F 33.8 °F 76% 29.61 in 10.0 mi WSW 12.7 mph 20.7 mph N/A   Overcast
6:15 PM 41.0 °F 34.7 °F 33.8 °F 76% 29.63 in 10.0 mi WSW 10.4 mph 21.9 mph N/A   Overcast
6:35 PM 39.2 °F 30.2 °F 33.8 °F 81% 29.64 in 7.0 mi West 17.3 mph 23.0 mph N/A   Overcast
6:55 PM 37.4 °F 28.5 °F 33.8 °F 87% 29.65 in 7.0 mi SW 15.0 mph 24.2 mph N/A   Overcast
7:15 PM 37.4 °F 28.5 °F 32.0 °F 81% 29.65 in 10.0 mi WSW 15.0 mph 23.0 mph N/A   Overcast
7:35 PM 37.4 °F 28.9 °F 32.0 °F 81% 29.66 in 10.0 mi SW 13.8 mph 25.3 mph N/A   Overcast
7:55 PM 35.6 °F 26.6 °F 32.0 °F 87% 29.67 in 10.0 mi WSW 13.8 mph 20.7 mph N/A   Overcast
8:15 PM 35.6 °F 28.0 °F 32.0 °F 87% 29.68 in 10.0 mi WSW 10.4 mph 17.3 mph N/A   Overcast
8:35 PM 35.6 °F 28.0 °F 32.0 °F 87% 29.69 in 10.0 mi WSW 10.4 mph 17.3 mph N/A   Overcast
8:55 PM 35.6 °F 26.2 °F 32.0 °F 87% 29.70 in 10.0 mi SW 15.0 mph 19.6 mph N/A   Overcast
9:15 PM 35.6 °F 27.1 °F 32.0 °F 87% 29.71 in 10.0 mi SW 12.7 mph - N/A   Overcast
9:35 PM 35.6 °F 27.5 °F 32.0 °F 87% 29.72 in 10.0 mi SW 11.5 mph 18.4 mph N/A   Overcast
9:55 PM 35.6 °F 29.2 °F 32.0 °F 87% 29.73 in 10.0 mi SW 8.1 mph 20.7 mph N/A   Overcast
10:35 PM 35.6 °F 27.5 °F 32.0 °F 87% 29.74 in 10.0 mi SW 11.5 mph 18.4 mph N/A   Overcast
10:55 PM 35.6 °F 27.5 °F 32.0 °F 87% 29.74 in 10.0 mi SW 11.5 mph 16.1 mph N/A   Overcast
11:15 PM 35.6 °F 28.0 °F 32.0 °F 87% 29.75 in 10.0 mi SW 10.4 mph 19.6 mph N/A   Overcast
11:35 PM 35.6 °F 28.0 °F 32.0 °F 87% 29.75 in 10.0 mi SW 10.4 mph 17.3 mph N/A   Overcast
11:55 PM 35.6 °F 27.1 °F 32.0 °F 87% 29.76 in 10.0 mi WSW 12.7 mph 18.4 mph N/A   Overcast